sat.trackr.live / text

‹ back to catalog

STARLINK-31989

NORAD 59959 · 2024-107Q

PAYLOAD ACTIVE UNKNOWN

§ Identity

Operator
Country
US
Launch date
2024-06-05
Launch site
AFETR
Launch vehicle
Mass (kg)
RCS (m²)

Purposes: comms

External: N2YO · Heavens-Above · Gunter

§ Orbital elements

Epoch: 2026-09-21T15:25:56.641152Z

Period
93.85 min
Inclination
53.1567°
Eccentricity
0.0001423
Mean motion
15.34374922 rev/d
Perigee alt
461.8 km
Apogee alt
463.8 km
Semi-major
6,840.9 km
B*
1.0157e-4
RAAN
232.1005°
Arg perigee
90.9120°
Mean anomaly
269.2045°
Rev number
12,984

§ Raw data

STARLINK-319891 59959U 24107Q   26264.64301668  .00003054  00000+0  10157-3 0  99932 59959  53.1567 232.1005 0001423  90.9120 269.2045 15.34374922129842

JSON: /api/v1/satellites/59959 · /tle

For live sub-satellite position, see the globe view (requires WebGL).

§ Visibility from observer

Set your observer location to see the next 7 days of passes ≥ 10°. The values pass through the URL so the page stays shareable.

No JS? Fill the form by hand. The geolocation button needs JavaScript.